Location: Lecco
(45.8566°N, 9.3977°E)
Time: 13:58:05
(UTC+02:00)

Tiros 1 - All Passes

Search period start: 22 July 2019 00:00
Search period end: 01 August 2019 00:00
Orbit: 630 x 664 km, 48.4° (Epoch: 22 July)

Date Brightness Start Highest point End Pass type
(mag) Time Alt. Az. Time Alt. Az. Time Alt. Az.
22 Jul - 11:43:11 10° SSE 11:45:28 13° SE 11:47:45 10° ESE daylight
22 Jul - 13:22:14 10° SW 13:26:53 52° SSE 13:31:34 10° ENE daylight
22 Jul - 15:04:16 10° W 15:09:05 71° N 15:13:54 10° ENE daylight
22 Jul - 16:46:47 10° WNW 16:51:37 70° N 16:56:25 10° E daylight
22 Jul - 18:29:08 10° WNW 18:33:50 54° SSW 18:38:29 10° SE daylight
22 Jul - 20:12:47 10° WSW 20:15:17 14° SW 20:17:45 10° SSW daylight
23 Jul - 12:07:05 10° SSW 12:11:05 27° SE 12:15:07 10° E daylight
23 Jul - 13:48:05 10° WSW 13:52:54 83° SSE 13:57:44 10° ENE daylight
23 Jul - 15:30:32 10° W 15:35:20 64° N 15:40:07 10° E daylight
23 Jul - 17:12:57 10° WNW 17:17:47 89° SSW 17:22:36 10° ESE daylight
23 Jul - 18:55:29 10° W 18:59:40 30° SW 19:03:49 10° SSE daylight
24 Jul - 10:53:38 10° SSE 10:55:31 12° SE 10:57:25 10° ESE daylight
24 Jul - 12:32:17 10° SW 12:36:53 49° SSE 12:41:32 10° ENE daylight
24 Jul - 14:14:14 10° W 14:19:03 73° NNW 14:23:53 10° ENE daylight
24 Jul - 15:56:46 10° WNW 16:01:35 69° N 16:06:23 10° E daylight
24 Jul - 17:39:06 10° WNW 17:43:50 57° SSW 17:48:31 10° SE daylight
24 Jul - 19:22:33 10° W 19:25:20 15° SW 19:28:05 10° S daylight
25 Jul - 11:17:14 10° SSW 11:21:07 25° SE 11:25:02 10° E daylight
25 Jul - 12:58:05 10° WSW 13:02:53 80° SSE 13:07:43 10° ENE daylight
25 Jul - 14:40:30 10° W 14:45:18 64° N 14:50:06 10° E daylight
25 Jul - 16:22:56 10° WNW 16:27:46 88° NNE 16:32:36 10° ESE daylight
25 Jul - 18:05:26 10° W 18:09:42 32° SW 18:13:56 10° SSE daylight
26 Jul - 10:04:13 10° SSE 10:05:35 11° SE 10:06:57 10° ESE daylight
26 Jul - 11:42:20 10° SW 11:46:54 46° SSE 11:51:30 10° ENE daylight
26 Jul - 13:24:13 10° W 13:29:02 75° NNW 13:33:52 10° ENE daylight
26 Jul - 15:06:44 10° WNW 15:11:33 68° N 15:16:22 10° E daylight
26 Jul - 16:49:05 10° WNW 16:53:50 61° SSW 16:58:33 10° SE daylight
26 Jul - 18:32:21 10° W 18:35:23 17° SW 18:38:22 10° S daylight
27 Jul - 10:27:24 10° SSW 10:31:09 23° SE 10:34:56 10° E daylight
27 Jul - 12:08:06 10° WSW 12:12:53 77° SSE 12:17:42 10° ENE daylight
27 Jul - 13:50:29 10° W 13:55:16 64° N 14:00:04 10° E daylight
27 Jul - 15:32:55 10° WNW 15:37:45 85° NNE 15:42:35 10° ESE daylight
27 Jul - 17:15:22 10° W 17:19:43 34° SW 17:24:03 10° SSE daylight
28 Jul - 09:15:25 10° SE 09:15:38 10° SE 09:15:51 10° SE daylight
28 Jul - 10:52:24 10° SW 10:56:55 43° SSE 11:01:28 10° ENE daylight
28 Jul - 12:34:12 10° W 12:39:01 76° NNW 12:43:51 10° ENE daylight
28 Jul - 14:16:43 10° WNW 14:21:32 67° N 14:26:20 10° E daylight
28 Jul - 15:59:03 10° WNW 16:03:49 64° SSW 16:08:35 10° SE daylight
28 Jul - 17:42:11 10° W 17:45:25 18° SW 17:48:38 10° S daylight
29 Jul - 09:37:34 10° S 09:41:11 22° SE 09:44:50 10° E daylight
29 Jul - 11:18:07 10° WSW 11:22:53 73° SSE 11:27:41 10° ENE daylight
29 Jul - 13:00:28 10° W 13:05:15 65° N 13:10:03 10° ENE daylight
29 Jul - 14:42:54 10° WNW 14:47:44 83° NNE 14:52:35 10° ESE daylight
29 Jul - 16:25:19 10° W 16:29:44 36° SW 16:34:08 10° SSE daylight
30 Jul - 10:02:29 10° SW 10:06:56 41° SSE 10:11:26 10° ENE daylight
30 Jul - 11:44:12 10° WSW 11:48:59 79° NNW 11:53:49 10° ENE daylight
30 Jul - 13:26:42 10° WNW 13:31:30 66° N 13:36:18 10° E daylight
30 Jul - 15:09:02 10° WNW 15:13:50 67° SSW 15:18:36 10° ESE daylight
30 Jul - 16:52:03 10° W 16:55:28 19° SW 16:58:51 10° S daylight
31 Jul - 08:47:47 10° S 08:51:13 20° SE 08:54:42 10° E daylight
31 Jul - 10:28:08 10° WSW 10:32:51 70° SSE 10:37:39 10° ENE daylight
31 Jul - 12:10:26 10° W 12:15:13 65° N 12:20:01 10° ENE daylight
31 Jul - 13:52:53 10° WNW 13:57:43 80° NNE 14:02:33 10° ESE daylight
31 Jul - 15:35:17 10° WNW 15:39:45 39° SW 15:44:13 10° SE daylight
